TimeAST,TemperatureF,Dew PointF,Humidity,Sea Level PressureIn,VisibilityMPH,Wind Direction,Wind SpeedMPH,Gust SpeedMPH,PrecipitationIn,Events,Conditions,WindDirDegrees,DateUTC
12:00 AM,75.2,69.8,83,29.98,6.2,Variable,2.3,-,N/A,,Mostly Cloudy,0,2013-03-03 04:00:00
1:00 AM,75.2,69.8,83,29.98,6.2,Variable,1.2,-,N/A,,Mostly Cloudy,0,2013-03-03 05:00:00
2:00 AM,74,69,80,29.96,19,,1.2,,,,Mostly Cloudy,,2013-03-03 06:00:00
2:00 AM,75.2,69.8,83,29.95,6.2,Variable,1.2,-,N/A,,Mostly Cloudy,0,2013-03-03 06:00:00
3:00 AM,73.4,69.8,88,29.92,6.2,Variable,2.3,-,N/A,,Mostly Cloudy,0,2013-03-03 07:00:00
4:00 AM,73.4,69.8,88,29.92,6.2,Variable,2.3,-,N/A,,Partly Cloudy,0,2013-03-03 08:00:00
5:00 AM,74,69,80,29.95,19,,2.3,,,,Scattered Clouds,,2013-03-03 09:00:00
5:00 AM,73.4,69.8,88,29.95,6.2,Variable,2.3,-,N/A,,Partly Cloudy,0,2013-03-03 09:00:00
6:00 AM,73.4,69.8,88,29.95,6.2,Variable,2.3,-,N/A,,Partly Cloudy,0,2013-03-03 10:00:00
7:00 AM,75.2,69.8,83,29.98,6.2,Variable,2.3,-,N/A,,Scattered Clouds,0,2013-03-03 11:00:00
8:00 AM,78,70,69,30.00,19,SE,9.2,,,,Partly Cloudy,140,2013-03-03 12:00:00
8:00 AM,78.8,69.8,74,29.98,6.2,SE,9.2,-,N/A,,Scattered Clouds,140,2013-03-03 12:00:00
9:00 AM,80.6,69.8,70,30.01,6.2,SE,10.4,-,N/A,,Mostly Cloudy,140,2013-03-03 13:00:00
10:00 AM,82.4,69.8,66,30.01,6.2,SE,10.4,-,N/A,,Scattered Clouds,140,2013-03-03 14:00:00
11:00 AM,82,69,57,30.03,19,SE,11.5,,,,Partly Cloudy,140,2013-03-03 15:00:00
11:00 AM,82.4,69.8,66,30.01,6.2,SE,11.5,-,N/A,,Scattered Clouds,140,2013-03-03 15:00:00
12:00 PM,84.2,69.8,62,30.01,6.2,SE,12.7,-,N/A,,Scattered Clouds,140,2013-03-03 16:00:00
1:00 PM,84.2,68.0,58,29.98,6.2,SE,11.5,-,N/A,,Scattered Clouds,140,2013-03-03 17:00:00
2:00 PM,84,67,48,29.96,19,SE,10.4,,,,Scattered Clouds,130,2013-03-03 18:00:00
2:00 PM,84.2,68.0,58,29.95,6.2,SE,10.4,-,N/A,,Partly Cloudy,130,2013-03-03 18:00:00
3:00 PM,84.2,69.8,62,29.92,6.2,SE,10.4,-,N/A,,Partly Cloudy,130,2013-03-03 19:00:00
4:00 PM,82.4,69.8,66,29.92,6.2,SE,10.4,-,N/A,,Partly Cloudy,130,2013-03-03 20:00:00
5:00 PM,81,69,60,29.95,19,SE,9.2,,,,Scattered Clouds,130,2013-03-03 21:00:00
5:00 PM,80.6,69.8,70,29.95,6.2,SE,9.2,-,N/A,,Partly Cloudy,130,2013-03-03 21:00:00
6:00 PM,78.8,69.8,74,29.95,6.2,SE,5.8,-,N/A,,Partly Cloudy,140,2013-03-03 22:00:00
7:00 PM,77.0,69.8,78,29.95,6.2,SE,4.6,-,N/A,,Partly Cloudy,140,2013-03-03 23:00:00
8:00 PM,76,70,76,29.98,19,SE,3.5,,,,Scattered Clouds,140,2013-03-04 00:00:00
8:00 PM,77.0,69.8,78,29.98,6.2,SE,3.5,-,N/A,,Partly Cloudy,140,2013-03-04 00:00:00
9:00 PM,75.2,69.8,83,29.98,6.2,SE,4.6,-,N/A,,Partly Cloudy,130,2013-03-04 01:00:00
10:00 PM,75.2,69.8,83,29.98,6.2,SE,3.5,-,N/A,,Partly Cloudy,140,2013-03-04 02:00:00
11:00 PM,74,70,82,30.01,19,,2.3,,,,Scattered Clouds,,2013-03-04 03:00:00
11:00 PM,75.2,69.8,83,30.01,6.2,Variable,2.3,-,N/A,,Partly Cloudy,0,2013-03-04 03:00:00